• In Hungary
  • List of Countries
  • For 7 days
  • Water Temperature
  • Satellite Maps
  • Weather Map
  • News
  • Weather Widgets
  • user-avatar
    Login

    Hourly Weather Bryakovo

    Today, 17 July, Tuesday

    Time Temperature Precipitation Wind Pressure Humidity
    00:00 +19°C° 0 mm 2 mps 745 mmHg 89%
    01:00 +18°C° 0 mm 2 mps 745 mmHg 90%
    02:00 +18°C° 0 mm 2 mps 745 mmHg 97%
    03:00 +18°C° 0 mm 2 mps 745 mmHg 94%
    04:00 +19°C° 0 mm 3 mps 745 mmHg 92%
    05:00 +19°C° 0 mm 3 mps 745 mmHg 90%
    06:00 +21°C° 0 mm 4 mps 745 mmHg 82%
    07:00 +23°C° 0 mm 4 mps 745 mmHg 74%
    08:00 +26°C° 0 mm 5 mps 745 mmHg 66%
    09:00 +27°C° 0 mm 5 mps 745 mmHg 62%
    10:00 +28°C° 0 mm 5 mps 745 mmHg 58%
    11:00 +29°C° 0 mm 5 mps 744 mmHg 54%
    12:00 +29°C° 0 mm 5 mps 744 mmHg 52%
    13:00 +29°C° 0 mm 5 mps 744 mmHg 49%
    14:00 +30°C° 0 mm 5 mps 744 mmHg 47%
    15:00 +29°C° 0 mm 5 mps 743 mmHg 49%
    16:00 +29°C° 0 mm 4 mps 743 mmHg 51%
    17:00 +28°C° 0 mm 4 mps 743 mmHg 53%
    18:00 +27°C° 0 mm 3 mps 743 mmHg 59%
    19:00 +25°C° 0 mm 3 mps 743 mmHg 65%
    20:00 +22°C° 0 mm 3 mps 743 mmHg 71%
    21:00 +21°C° 0 mm 3 mps 743 mmHg 71%
    22:00 +21°C° 0 mm 3 mps 743 mmHg 71%
    23:00 +20°C° 0 mm 3 mps 743 mmHg 71%

    Tomorrow, 18 July, Wednesday

    Time Temperature Precipitation Wind Pressure Humidity
    00:00 +20°C° 0 mm 3 mps 743 mmHg 71%
    01:00 +20°C° 0 mm 3 mps 743 mmHg 72%
    02:00 +19°C° 0 mm 3 mps 743 mmHg 73%
    03:00 +19°C° 0.1 mm 4 mps 743 mmHg 75%
    04:00 +19°C° 0.1 mm 4 mps 743 mmHg 77%
    05:00 +19°C° 0.1 mm 4 mps 743 mmHg 79%
    06:00 +20°C° 0.3 mm 4 mps 742 mmHg 75%
    07:00 +21°C° 0.3 mm 4 mps 742 mmHg 72%
    08:00 +23°C° 0.3 mm 5 mps 742 mmHg 69%
    09:00 +25°C° 0 mm 5 mps 742 mmHg 64%
    10:00 +26°C° 0 mm 5 mps 742 mmHg 60%
    11:00 +27°C° 0 mm 5 mps 742 mmHg 56%
    12:00 +27°C° 0.7 mm 5 mps 741 mmHg 61%
    13:00 +26°C° 0.7 mm 5 mps 741 mmHg 67%
    14:00 +26°C° 0.7 mm 5 mps 741 mmHg 73%
    15:00 +25°C° 1 mm 4 mps 741 mmHg 77%
    16:00 +25°C° 1 mm 4 mps 741 mmHg 81%
    17:00 +23°C° 1 mm 4 mps 741 mmHg 85%
    18:00 +22°C° 0.3 mm 3 mps 741 mmHg 87%
    19:00 +21°C° 0.3 mm 3 mps 741 mmHg 89%
    20:00 +20°C° 0.3 mm 3 mps 741 mmHg 91%
    21:00 +20°C° 0.4 mm 3 mps 741 mmHg 92%
    22:00 +19°C° 0.4 mm 3 mps 741 mmHg 93%
    23:00 +19°C° 0.4 mm 3 mps 741 mmHg 94%

    Day after tomorrow, 19 July, Thursday

    Time Temperature Precipitation Wind Pressure Humidity
    00:00 +19°C° 0 mm 3 mps 741 mmHg 94%
    01:00 +19°C° 0 mm 3 mps 741 mmHg 94%
    02:00 +18°C° 0 mm 3 mps 741 mmHg 94%
    03:00 +18°C° 0 mm 3 mps 741 mmHg 93%
    04:00 +19°C° 0 mm 4 mps 741 mmHg 93%
    05:00 +19°C° 0 mm 4 mps 741 mmHg 92%
    06:00 +19°C° 0 mm 4 mps 741 mmHg 88%
    07:00 +20°C° 0 mm 4 mps 741 mmHg 85%
    08:00 +21°C° 0 mm 4 mps 741 mmHg 81%
    09:00 +22°C° 0 mm 4 mps 741 mmHg 78%
    10:00 +23°C° 0 mm 4 mps 741 mmHg 76%
    11:00 +23°C° 0 mm 4 mps 741 mmHg 73%
    12:00 +25°C° 0.5 mm 4 mps 741 mmHg 76%
    13:00 +25°C° 0.5 mm 4 mps 741 mmHg 79%
    14:00 +25°C° 0.5 mm 4 mps 741 mmHg 82%
    15:00 +25°C° 0.5 mm 4 mps 741 mmHg 82%
    16:00 +25°C° 0.5 mm 4 mps 741 mmHg 83%
    17:00 +25°C° 0.5 mm 4 mps 741 mmHg 83%
    18:00 +23°C° 0.1 mm 4 mps 741 mmHg 86%
    19:00 +22°C° 0.1 mm 3 mps 741 mmHg 88%
    20:00 +21°C° 0.1 mm 3 mps 741 mmHg 91%
    21:00 +21°C° 0.8 mm 3 mps 741 mmHg 92%
    22:00 +20°C° 0.8 mm 3 mps 741 mmHg 94%
    23:00 +20°C° 0.8 mm 3 mps 741 mmHg 96%

    20 July, Friday

    Time Temperature Precipitation Wind Pressure Humidity
    00:00 +20°C° 0 mm 3 mps 741 mmHg 96%
    01:00 +20°C° 0 mm 3 mps 741 mmHg 97%
    02:00 +19°C° 0 mm 3 mps 741 mmHg 97%
    03:00 +19°C° 0 mm 4 mps 741 mmHg 97%
    04:00 +19°C° 0 mm 4 mps 741 mmHg 96%
    05:00 +19°C° 0 mm 4 mps 741 mmHg 96%
    06:00 +19°C° 0.1 mm 4 mps 742 mmHg 95%
    07:00 +19°C° 0.1 mm 4 mps 742 mmHg 94%
    08:00 +20°C° 0.1 mm 4 mps 742 mmHg 94%
    09:00 +20°C° 0.1 mm 4 mps 742 mmHg 93%
    10:00 +20°C° 0.1 mm 4 mps 742 mmHg 92%
    11:00 +20°C° 0.1 mm 4 mps 742 mmHg 91%
    12:00 +20°C° 0 mm 4 mps 742 mmHg 88%
    13:00 +21°C° 0 mm 4 mps 742 mmHg 85%
    14:00 +21°C° 0 mm 4 mps 742 mmHg 83%
    15:00 +21°C° 0 mm 4 mps 742 mmHg 81%
    16:00 +22°C° 0 mm 3 mps 742 mmHg 80%
    17:00 +22°C° 0 mm 3 mps 742 mmHg 78%
    18:00 +21°C° 0 mm 3 mps 742 mmHg 82%
    19:00 +20°C° 0 mm 2 mps 742 mmHg 86%
    20:00 +20°C° 0 mm 2 mps 742 mmHg 90%
    21:00 +19°C° 0 mm 2 mps 741 mmHg 92%
    22:00 +19°C° 0 mm 2 mps 741 mmHg 94%
    23:00 +19°C° 0 mm 2 mps 741 mmHg 96%

    21 July, Saturday

    Time Temperature Precipitation Wind Pressure Humidity
    00:00 +18°C° 0 mm 2 mps 741 mmHg 96%
    01:00 +18°C° 0 mm 2 mps 741 mmHg 97%
    02:00 +18°C° 0 mm 2 mps 741 mmHg 98%
    03:00 +18°C° 0.1 mm 2 mps 741 mmHg 98%
    04:00 +18°C° 0.1 mm 2 mps 741 mmHg 98%
    05:00 +18°C° 0.1 mm 2 mps 740 mmHg 97%
    06:00 +19°C° 0.1 mm 2 mps 740 mmHg 97%
    07:00 +19°C° 0.1 mm 2 mps 740 mmHg 96%
    08:00 +20°C° 0.1 mm 3 mps 740 mmHg 95%
    09:00 +20°C° 0 mm 2 mps 740 mmHg 94%
    10:00 +21°C° 0 mm 2 mps 740 mmHg 92%
    11:00 +21°C° 0 mm 2 mps 740 mmHg 91%
    12:00 +23°C° 0 mm 2 mps 740 mmHg 88%
    13:00 +24°C° 0 mm 2 mps 740 mmHg 84%
    14:00 +25°C° 0 mm 2 mps 740 mmHg 81%
    15:00 +25°C° 0.1 mm 2 mps 740 mmHg 80%
    16:00 +26°C° 0.1 mm 2 mps 739 mmHg 79%
    17:00 +27°C° 0.1 mm 2 mps 739 mmHg 78%
    18:00 +26°C° 0.3 mm 2 mps 739 mmHg 83%
    19:00 +24°C° 0.3 mm 2 mps 739 mmHg 89%
    20:00 +23°C° 0.3 mm 2 mps 739 mmHg 94%
    21:00 +23°C° 0.5 mm 2 mps 739 mmHg 95%
    22:00 +21°C° 0.5 mm 2 mps 739 mmHg 97%
    23:00 +21°C° 0.5 mm 2 mps 739 mmHg 98%

    22 July, Sunday

    Time Temperature Precipitation Wind Pressure Humidity
    00:00 +20°C° 0 mm 2 mps 739 mmHg 98%
    01:00 +20°C° 0 mm 2 mps 739 mmHg 98%
    02:00 +20°C° 0 mm 2 mps 739 mmHg 98%
    03:00 +20°C° 0 mm 2 mps 739 mmHg 97%
    04:00 +20°C° 0 mm 2 mps 739 mmHg 97%
    05:00 +20°C° 0 mm 2 mps 739 mmHg 97%
    06:00 +23°C° 0 mm 2 mps 739 mmHg 92%
    07:00 +24°C° 0 mm 2 mps 739 mmHg 86%
    08:00 +26°C° 0 mm 3 mps 739 mmHg 81%
    09:00 +27°C° 0.2 mm 3 mps 739 mmHg 74%
    10:00 +28°C° 0.2 mm 3 mps 738 mmHg 68%
    11:00 +29°C° 0.2 mm 3 mps 738 mmHg 62%
    12:00 +29°C° 1.1 mm 3 mps 738 mmHg 67%
    13:00 +28°C° 1.1 mm 3 mps 738 mmHg 71%
    14:00 +28°C° 1.1 mm 3 mps 738 mmHg 76%
    15:00 +28°C° 0.3 mm 3 mps 738 mmHg 75%
    16:00 +28°C° 0.3 mm 3 mps 738 mmHg 73%
    17:00 +28°C° 0.3 mm 3 mps 738 mmHg 72%
    18:00 +26°C° 0.5 mm 2 mps 738 mmHg 78%
    19:00 +25°C° 0.5 mm 2 mps 738 mmHg 84%
    20:00 +23°C° 0.5 mm 2 mps 738 mmHg 90%
    21:00 +21°C° 0.4 mm 2 mps 737 mmHg 92%
    22:00 +21°C° 0.4 mm 2 mps 737 mmHg 93%
    23:00 +21°C° 0.4 mm 1 mps 737 mmHg 95%
    Show more